Regional Weather Roundup
Issued by NWS Raleigh/Durham, NC

Home | Current Version | Previous Version | Text Only | Print | Product List | Glossary On
Versions: 1 2 3 4 5 6 7 8 9 10 11 12 13 14 15 16 17 18 19 20 21 22 23 24 25 26 27
000
ASUS42 KRAH 232010
RWRRAH
NORTH CAROLINA WEATHER ROUNDUP
NATIONAL WEATHER SERVICE RALEIGH NC
300 PM EST FRI FEB 23 2018

NOTE: "FAIR" INDICATES FEW OR NO CLOUDS BELOW 12,000 FEET WITH NO
SIGNIFICANT WEATHER AND/OR OBSTRUCTIONS TO VISIBILITY.

NCZ001-053-055-056-065-067-232100-
WESTERN NORTH CAROLINA

CITY           SKY/WX    TMP DP  RH WIND       PRES   REMARKS
ASHEVILLE      FAIR      74  52  46 S16G23    30.36F
JEFFERSON      FAIR      68  53  59 CALM      30.36F
MORGANTON      PTSUNNY   73  60  64 E5        30.37F
HICKORY        FAIR      72  59  63 VRB3      30.34F
RUTHERFORDTON  FAIR      77  56  49 S12G21    30.34F
MOUNT AIRY     CLOUDY    58  52  78 CALM      30.40F
BOONE          FAIR      67  50  53 S15G23    30.39F
$$

NCZ021-022-025-041-071-084-088-232100-
CENTRAL NORTH CAROLINA

CITY           SKY/WX    TMP DP  RH WIND       PRES   REMARKS
CHARLOTTE      PTSUNNY   78  57  48 S13       30.34F
GREENSBORO     PTSUNNY   61  54  77 NE7       30.38F
WINSTON-SALEM  FAIR      58  51  78 N7        30.39F
RALEIGH-DURHAM FAIR      68  57  68 CALM      30.39F
FORT BRAGG     FAIR      77  58  52 SW6       30.35S
FAYETTEVILLE   PTSUNNY   78  60  53 S7        30.35F
BURLINGTON     FAIR      67  56  67 N5        30.38F
LAURINBURG     FAIR      79  57  46 S12       30.36F
$$

NCZ011-015-027-028-043-044-047-080-103-232100-
NORTHEASTERN NORTH CAROLINA

CITY           SKY/WX    TMP DP  RH WIND       PRES   REMARKS
ROCKY MT-WILSO FAIR      64  54  69 NW5       30.40F
GREENVILLE     FAIR      72  57  60 N3        30.39F
WASHINGTON     FAIR      73  58  60 SW5       30.39F
ELIZABETH CITY CLOUDY    60  56  86 CALM      30.40F
MANTEO         PTSUNNY   55  52  89 N3        30.41F
CAPE HATTERAS  FAIR      64  58  80 N6        30.41F
$$

NCZ078-087-090-091-093-098-101-232100-
SOUTHEASTERN NORTH CAROLINA

CITY           SKY/WX    TMP DP  RH WIND       PRES   REMARKS
LUMBERTON      PTSUNNY   79  59  50 SE8       30.34F
GOLDSBORO      FAIR      76  60  56 NW5       30.36F
KINSTON        FAIR      77  59  53 S7        30.38F
KENANSVILLE    PTSUNNY   73  61  64 W5        30.37F
NEW BERN       FAIR      73  61  65 N3        30.39F
CHERRY POINT   PTSUNNY   75  63  66 N9        30.39F
BEAUFORT       FAIR      69  60  73 E9        30.40S
JACKSONVILLE   FAIR      75  62  64 S10       30.37F
WILMINGTON     PTSUNNY   68  62  81 SE9       30.39F
$$





USA.gov is the U.S. government's official web portal to all federal, state and local government web resources and services.